Zurück zum Katalog

ARIANE 3 R/B

AktivGTO
NORAD 16657·ROCKET BODY·🇫🇷 France

Gestartet Mar 28, 1986 von Guiana Space Centre

Loading…

TLE

VeraltetSource: Space-Track

Epoche: Sep 13, 2026, 21:06 UTC

1 16657U 86026C   26256.87920178  .00000027  00000-0  69276-3 0  9992
2 16657   7.1737  23.6788 7221217 292.6566   9.5071  2.25817695281967

Verfolge ARIANE 3 R/B in Echtzeit mit AllMySat

Download on the App Store